Regional Weather Roundup
Issued by NWS

Home | Current Version | Previous Version | Graphics & Text | Print | Product List | Glossary On
Versions: 1 2 3 4 5 6 7 8 9 10 11 12 13 14 15 16 17 18 19 20 21 22 23 24 25 26 27
000
ASUS45 KBOU 281707
RWRCO

WEATHER ROUNDUP FOR COLORADO
NATIONAL WEATHER SERVICE DENVER/BOULDER CO
1100 AM MDT FRI APR 28 2017

NOTE: "FAIR" INDICATES FEW OR NO CLOUDS BELOW 12000 FEET WITH NO
SIGNIFICANT WEATHER AND/OR OBSTRUCTIONS TO VISIBILITY.

COZ001>005-013-030-031-281800-
...NORTHWEST COLORADO...

CITY           SKY/WX    TMP DP  RH WIND       PRES   REMARKS
CRAIG          PTSUNNY   39  20  46 VRB3      29.75S
HAYDEN         PTSUNNY   34  18  51 W6        29.74F WCI  29
MEEKER         CLOUDY    35  27  72 N10       29.74F WCI  27
MOUNT WERNER   NOT AVBL
STEAMBOAT SPGS CLOUDY    32  22  66 NW5       29.73F WCI  28
WALDEN           N/A     30  16  55 CALM      29.72S
$$

COZ006>008-011-281800-
...WEST CENTRAL VALLEYS...

CITY           SKY/WX    TMP DP  RH WIND       PRES   REMARKS
GRAND JUNCTION FAIR      47  18  31 W9        29.75S
MONTROSE       PTSUNNY   43  13  29 VRB3      29.75F
EAGLE          PTSUNNY   37  16  41 S10       29.74F
RIFLE          PTSUNNY   44  22  41 NW7       29.74S
DELTA          FAIR      50  13  22 W17       29.73F
NUCLA          FAIR      45   9  23 W6        29.77S
$$

COZ017>023-064>068-281800-
...SOUTHWEST COLORADO...

CITY           SKY/WX    TMP DP  RH WIND       PRES   REMARKS
DURANGO        CLOUDY    40  22  48 SW7       29.74S
CORTEZ         CLOUDY    44  18  35 W6        29.75S
PAGOSA SPRINGS FAIR      37  22  56 SW6       29.73F
TELLURIDE      CLOUDY    31  11  43 SW8       29.73S WCI  24
WOLF CREEK PAS LGT SNOW  19  14  79 S13G21    29.77R WCI   7
$$

COZ009-010-012-014-032>034-037-058>063-281800-
...CENTRAL COLORADO...

CITY           SKY/WX    TMP DP  RH WIND       PRES   REMARKS
ASPEN          PTSUNNY   31  22  69 N6        29.71S WCI  25
BUENA VISTA    CLOUDY    37  11  35 E8G16     29.69S
COPPER MTN     LGT SNOW  19  14  79 MISG      29.70R
BERTHOUD PASS  FAIR      10   0  61 MISG      29.70R
COTTONWOOD PAS CLOUDY    32  14  47 SW3       29.70S
GUNNISON       FAIR      37  12  35 SW13G20   29.71F
KREMMLING      PTSUNNY   43  19  39 E5        29.73S
LEADVILLE      PTSUNNY   23  11  60 VRB3      29.69R
MONARCH PASS     N/A     14  10  85 W18       29.81R WCI  -3
SALIDA         FAIR      43   8  23 NW10      29.76F
SUNLIGHT       PTSUNNY   19  18  93 SW5       29.75R WCI  13
WILKERSON PASS PTSUNNY   27   5  39 SW7       29.73R WCI  19
$$

COZ069>075-281800-
...SAN LUIS VALLEY/SANGRE DE CRISTO MOUNTAINS...

CITY           SKY/WX    TMP DP  RH WIND       PRES   REMARKS
ALAMOSA        FAIR      41  16  36 S8G17     29.69F
LA VETA PASS   CLOUDY    30  18  59 SW9G24    29.82S WCI  22
SAGUACHE       FAIR      39  10  30 SE6       29.70F
$$

COZ035-036-038>040-281800-
...NORTHERN COLORADO FRONT RANGE...

CITY           SKY/WX    TMP DP  RH WIND       PRES   REMARKS
DENVER INTL AP FAIR      49  16  26 N10       29.66S
DMNS CITY PARK   N/A     50  12  21 E5G18     29.65S
AURORA         MOSUNNY   50  14  23 NE7       29.66S
FRONT RANGE AP MOSUNNY   50  18  27 CALM      29.67S
ERIE MUNI ARPT FAIR      50  23  35 NE8       29.66S
BOULDER MUN AP FAIR      50  23  34 E6        29.65S
CENTENNIAL     FAIR      48  11  22 NE12G20   29.65S
BROOMFIELD     PTSUNNY   50  16  25 NE9       29.66R
FORT COLLINS   FAIR      50  26  39 SE12      29.67S
LONGMONT       FAIR      54  29  37 E13       29.68R HAZE
$$

COZ041-046-047-076>085-087-088-281800-
...PIKES PEAK/PALMER DIVIDE AND SOUTHERN FOOTHILLS...

CITY           SKY/WX    TMP DP  RH WIND       PRES   REMARKS
COLO. SPRINGS  FAIR      50   3  14 VRB7      29.67R
A. F. ACADEMY  FAIR      47   8  20 N7        29.65S
SCHRIEVER AFB  FAIR      47   7  20 SW7G18    29.67S
ELLICOTT       FAIR     N/A N/A N/A SE8       29.66S
FALCON         FAIR      47   7  19 S3        29.68R
FORT CARSON    FAIR      50  12  22 NE5       29.65R
LIMON          PTSUNNY   50  20  30 E7        29.67S
MONUMENT HILL  FAIR      41  12  30 CALM      29.69R
TRINIDAD       PTSUNNY   50  21  32 E7        29.68R
$$

COZ042>045-048>051-090-091-281800-
...NORTHEAST COLORADO...

CITY           SKY/WX    TMP DP  RH WIND       PRES   REMARKS
GREELEY ARPT   FAIR      49  25  39 CALM      29.68S
AKRON          FAIR      49  34  56 N14G21    29.69R
BURLINGTON     NOT AVBL
WRAY           NOT AVBL
STERLING       CLOUDY    45  37  76 NE12G20   29.71R
HOLYOKE        CLOUDY    41  37  87 NE16      29.76R FOG
FORT MORGAN    FAIR      53  24  32 N12G20    29.69R
$$

COZ086-089-092>099-281800-
...SOUTHEAST COLORADO...

CITY           SKY/WX    TMP DP  RH WIND       PRES   REMARKS
PUEBLO         FAIR      53  20  27 S6        29.65R
LA JUNTA       FAIR      54  26  34 NW5       29.67S
LAMAR          FAIR      57  40  52 E3        29.64F
SPRINGFIELD      N/A     56  29  35 CALM      29.65F
$$




USA.gov is the U.S. government's official web portal to all federal, state and local government web resources and services.